{"data":{"norad_id":40746,"intl_designator":"2015-036A","name":"WGS F7 (USA 263)","alt_names":[],"object_type":"PAYLOAD","status":"ACTIVE","operator":null,"country":"US","launch_date":"2015-07-24","launch_site_code":"AFETR","launch_vehicle":null,"mission":null,"orbit_class":"UNKNOWN","rcs_meters":7.2473,"size_class":null,"mass_kg":null,"dimensions":null,"purposes":["comms"],"wikipedia_slug":null,"has_3d_model":false,"image_url":null,"decayed_at":null,"tle_current":{"epoch":"2026-09-19T07:32:23.666784Z","epoch_age_seconds":124427,"freshness":"FRESH","line1":"1 40746U 15036A   26262.31416281  .00000014  00000+0  00000+0 0  9993","line2":"2 40746   0.0123 157.7077 0000409 294.1324 194.4968  1.00273353 40819","mean_motion":1.00273353,"eccentricity":4.09e-5,"inclination_deg":0.0123,"raan_deg":157.7077,"arg_perigee_deg":294.1324,"mean_anomaly_deg":194.4968,"bstar":0,"rev_number":4081,"period_min":1436.0744474158,"perigee_km":35784.43088004,"apogee_km":35787.879919158,"semimajor_km":42164.292399599,"source":"CELESTRAK","updated_at":"2026-09-20T09:00:35.217734Z"}}}